Regional Weather Roundup
Issued by NWS Charleston, SC

Current Version | Previous Version | Graphics & Text | Print | Product List | Glossary On
Versions: 1 2 3 4 5 6 7 8 9 10 11 12 13 14 15 16 17 18 19 20 21 22 23 24 25 26 27 28 29 30 31 32 33 34 35 36 37 38 39 40 41 42 43 44 45 46 47 48 49 50
386
ASUS42 KCHS 220512
RWRCHS

REGIONAL WEATHER ROUNDUP
NATIONAL WEATHER SERVICE CHARLESTON SC
1200 AM EST SUN JAN 22 2017

NOTE: "FAIR" INDICATES FEW OR NO CLOUDS BELOW 12,000 FEET WITH NO
SIGNIFICANT WEATHER AND/OR OBSTRUCTIONS TO VISIBILITY.

NOT ALL STATIONS ARE QUALITY CONTROLLED. USE DATA WITH CAUTION...
ESPECIALLY DEWPOINT OBSERVATIONS.

SCZ027-030-031-034>040-042>050-220600-
...SOUTHEAST SOUTH CAROLINA...

CITY           SKY/WX    TMP DP  RH WIND       PRES   REMARKS
N CHARLESTON   PTCLDY    59  57  93 SW7       29.71F
WATERFRONT PRK   N/A     61  60  97 SW5       29.72S
MOUNT PLEASANT FAIR      61  59  94 SW6       29.72F
JOHNS ISLAND   FAIR      61  59  94 S5        29.72F
PINOPOLIS        N/A     61  59  94 S6        29.62S
MONCKS CORNER  CLOUDY    59  57  94 SW6       29.71F
SUMMERVILLE    CLOUDY   N/A N/A N/A S3        29.72F
BEAUFORT MCAS  CLEAR     60  58  92 S3        29.73R
BEAUFORT ARPT  FAIR      59  59 100 SW5       29.72R
HILTON HEAD IS CLEAR     61  61 100 S7        29.73R
WALTERBORO     CLOUDY    59  59 100 SW5       29.73S
ALLENDALE      CLOUDY    61  59  94 VRB3      29.70F

...SOUTHERN MIDLANDS AND PEE DEE...

CITY           SKY/WX    TMP DP  RH WIND       PRES   REMARKS
GEORGETOWN     NOT AVBL
KINGSTREE      CLOUDY    59  55  88 S6        29.71R
ORANGEBURG     CLOUDY    60  58  92 SW8       29.70F
BARNWELL       CLOUDY    61  61 100 SW6       29.71F
AIKEN          CLOUDY    59  55  88 SW7       29.72S
MANNING        CLOUDY    59  55  88 S6        29.70S
COLUMBIA       CLOUDY    62  57  83 SW5       29.67F
SUMTER         CLOUDY    61  57  88 SW12      29.66S
FLORENCE       CLOUDY    62  59  90 SW13G22   29.67S
MYRTLE BEACH   MOCLDY    61  55  82 SW9       29.73R
N MYRTLE BEACH CLOUDY    61  58  90 SW12      29.69F

$$

GAZ063-065-086>088-099>101-113>116-118-119-134>141-150-220600-
...SOUTHEAST GEORGIA...

CITY           SKY/WX    TMP DP  RH WIND       PRES   REMARKS
SAVANNAH ARPT  PTCLDY    60  58  92 S3        29.72S
HUNTER AAF     CLOUDY    62  62 100 SW7       29.70R
FORT STEWART   MOCLDY    64  59  85 S3        29.70S
STATESBORO     CLOUDY    58  32  37 CALM      29.72S
SYLVANIA       CLOUDY   N/A N/A N/A CALM      29.72S
CLAXTON        FAIR     N/A N/A N/A CALM      29.71F

...CSRA...CENTRAL AND FAR SOUTHEAST GEORGIA...

CITY           SKY/WX    TMP DP  RH WIND       PRES   REMARKS
THOMSON        CLOUDY    62  60  94 W3        29.74S
AUGUSTA-BUSH   CLOUDY    63  58  83 S5        29.69F
AUGUSTA-DANIEL CLOUDY    61  56  83 SW6       29.70S
SWAINSBORO     CLOUDY    61  61 100 S5        29.71F
VIDALIA        CLOUDY    61  61 100 CALM      29.70R
EASTMAN        CLOUDY    61  61 100 NW3       29.72S
HAZLEHURST     TSTM      64  64 100 S9        29.67F
ALMA           HVY RAIN  63  63 100 S10       29.70F FOG
WAYCROSS       TSTM      66  66 100 S9        29.79R
JESUP          MOCLDY    64  61  88 S6        29.73F
BAXLEY         MOCLDY    64  64 100 S6        29.70F THUNDER
BRUNSWICK      CLOUDY    66  64  94 SW10      29.75S
SAINT SIMONS   CLOUDY    66  62  87 SW8       29.74S

$$

SCZ027-028-034-036>038-045-046-048>050-GAZ119-141-220600-
...LAKE AND SUPPLEMENTAL COASTAL OBSERVATIONS...

STATION/POSITION TIME  TEMP    WIND        PRES    WAVE   SWELL
                       AIR SEA DIR/SP/G            HT/PER HT/PER/DIR
                 (UTC) (F)     (DEG/KT/KT) (MB)    (FT/S) (FT/S/D)
WINYAH BAY       NOT AVBL
LAKE MURRAY      0420   61     240/  7/ 10 1004.4
ACE BASIN NERRS  0345   60        CALM     1007.0
FORT PULASKI     0442   62 59  230/  8/ 11 1006.7R
SAPELO ISLAND    0400   63     240/  6     1007.0

$$

ANZ835-935-AMZ111-154-330-350-352-354-370-450-454-472-220600-
...C-MAN AND BUOY OBSERVATIONS...

STATION/POSITION TIME  TEMP    WIND        PRES    WAVE   SWELL
                       AIR SEA DIR/SP/G            HT/PER HT/PER/DIR
                 (UTC) (F)     (DEG/KT/KT) (MB)    (FT/S) (FT/S/D)
BUOY 41004       0350   68 69  180/ 12/ 16 1006.3    4/ 5   2/190/ 6
BUOY 41008       0350   65 62  240/  8/ 10 1006.4    3/ 5   2/140/ 5
FOLLY BEACH CMAN 0400   60     230/  9/ 12 1007.3R
CAPERS NEARSHORE 0408   60 56  220/ 10/ 14 1006.2R
FRIPP NEARSHORE  0408   60 59  210/  8/ 12 1005.7F


STATION/POSITION TIME  TEMP    WIND        PRES    WAVE   SWELL
                       AIR SEA DIR/SP/G            HT/PER HT/PER/DIR
                 (UTC) (F)     (DEG/KT/KT) (MB)    (FT/S) (FT/S/D)
5E ST. MARYS GA  0430      63                N/A     2/11   2/ 90/11
FRYING PAN BUOY  0450   70 70  180/ 17/ 21 1004.5F   5/ 5   2/ 90/10
BUOY 41025       0450   68 74  160/ 10/ 16 1005.8F   5/ 5   5/160/ 5
CAPE LOOKOUT NC  0400   65     180/ 12/ 14 1005.1F
BUOY 41002       0450   72 71  200/ 16/ 19 1010.3F   5/ 6   3/ 40/10
BUOY 41010       NOT AVBL
ST AUGUSTINE FL  0500   65 64  140/  8/  9 1009.7F


$$




USA.gov is the U.S. government's official web portal to all federal, state and local government web resources and services.